Terug naar catalogus

DELTA 1 DEB

ActiefPO
NORAD 21506·DEBRIS·🇺🇸 United States

Gelanceerd Jun 12, 1975 vanaf Vandenberg Space Force Base

Loading…

Volgende Passages (komende 24 uur)

TLE

VersSource: Space-Track

Epoch: Sep 14, 2026, 00:32 UTC

1 21506U 75052GB  26257.02272699  .00000322  00000-0  89123-3 0  9995
2 21506  99.5720 100.2600 0175229 280.0491 238.2032 13.15442384688273

Volg DELTA 1 DEB in realtime met AllMySat

Download on the App Store